Location: Ajisawe
(8.4333°N, 4.3833°E)
Time: 00:28:18
(UTC+00:00)

A-11 Canister half - Pass Details

Date: 19 April 2021
Orbit: 1514 x 1685 km, 47.2° (Epoch: 15 May)

Event Time Altitude Azimuth Distance (km) Brightness Sun altitude
Rises 18:13:19 0° 221° (SW) 4,656 12.0 -6.0°
Reaches altitude 10° 18:16:21 10° 222° (SW) 3,669 11.4 -6.8°
Maximum altitude 18:25:35 85° 309° (NW) 1,523 9.1 -9.0°
Drops below altitude 10° 18:34:56 10° 39° (NE) 3,712 10.8 -11.2°
Sets 18:38:01 0° 40° (NE) 4,713 11.3 -12.0°
